• In Hungary
  • List of Countries
  • For 7 days
  • Water Temperature
  • Satellite Maps
  • Weather Map
  • News
  • Weather Widgets
  • user-avatar
    Login

    Hourly Weather Wyrow

    Today, 22 October, Monday

    Time Temperature Precipitation Wind Pressure Humidity
    00:00 +6°C° 0 mm 2 mps 760 mmHg 81%
    01:00 +6°C° 0 mm 2 mps 760 mmHg 83%
    02:00 +6°C° 0 mm 2 mps 760 mmHg 84%
    03:00 +5°C° 0 mm 2 mps 759 mmHg 85%
    04:00 +5°C° 0 mm 2 mps 759 mmHg 87%
    05:00 +5°C° 0 mm 2 mps 759 mmHg 87%
    06:00 +5°C° 0 mm 2 mps 759 mmHg 87%
    07:00 +5°C° 0 mm 2 mps 759 mmHg 88%
    08:00 +7°C° 0 mm 2 mps 759 mmHg 81%
    09:00 +8°C° 0 mm 3 mps 759 mmHg 74%
    10:00 +10°C° 0 mm 3 mps 758 mmHg 66%
    11:00 +11°C° 0 mm 3 mps 758 mmHg 64%
    12:00 +12°C° 0 mm 4 mps 758 mmHg 62%
    13:00 +12°C° 0 mm 4 mps 757 mmHg 59%
    14:00 +12°C° 0.1 mm 4 mps 757 mmHg 63%
    15:00 +11°C° 0.1 mm 4 mps 757 mmHg 67%
    16:00 +11°C° 0.1 mm 4 mps 757 mmHg 71%
    17:00 +10°C° 0.5 mm 4 mps 757 mmHg 75%
    18:00 +9°C° 0.5 mm 5 mps 757 mmHg 80%
    19:00 +8°C° 0.5 mm 5 mps 757 mmHg 84%
    20:00 +8°C° 0 mm 5 mps 758 mmHg 84%
    21:00 +7°C° 0 mm 4 mps 758 mmHg 84%
    22:00 +6°C° 0 mm 4 mps 758 mmHg 84%
    23:00 +5°C° 0 mm 4 mps 758 mmHg 83%

    Tomorrow, 23 October, Tuesday

    Time Temperature Precipitation Wind Pressure Humidity
    00:00 +5°C° 0 mm 4 mps 758 mmHg 83%
    01:00 +5°C° 0 mm 4 mps 758 mmHg 83%
    02:00 +5°C° 0 mm 4 mps 758 mmHg 83%
    03:00 +4°C° 0 mm 4 mps 757 mmHg 83%
    04:00 +4°C° 0 mm 4 mps 757 mmHg 82%
    05:00 +3°C° 0 mm 5 mps 756 mmHg 81%
    06:00 +5°C° 0 mm 5 mps 756 mmHg 80%
    07:00 +4°C° 0 mm 6 mps 755 mmHg 79%
    08:00 +4°C° 0.2 mm 7 mps 754 mmHg 77%
    09:00 +5°C° 0.2 mm 8 mps 753 mmHg 75%
    10:00 +5°C° 0.2 mm 9 mps 752 mmHg 73%
    11:00 +5°C° 1 mm 9 mps 751 mmHg 75%
    12:00 +5°C° 1 mm 10 mps 749 mmHg 77%
    13:00 +4°C° 1 mm 11 mps 748 mmHg 80%
    14:00 +6°C° 0.8 mm 11 mps 747 mmHg 80%
    15:00 +6°C° 0.8 mm 11 mps 745 mmHg 80%
    16:00 +7°C° 0.8 mm 12 mps 744 mmHg 80%
    17:00 +7°C° 0.8 mm 11 mps 743 mmHg 82%
    18:00 +8°C° 0.8 mm 11 mps 743 mmHg 83%
    19:00 +9°C° 0.8 mm 11 mps 742 mmHg 84%
    20:00 +9°C° 0.9 mm 10 mps 742 mmHg 83%
    21:00 +9°C° 0.9 mm 10 mps 741 mmHg 81%
    22:00 +9°C° 0.9 mm 10 mps 741 mmHg 79%
    23:00 +9°C° 1.4 mm 11 mps 740 mmHg 80%

    Day after tomorrow, 24 October, Wednesday

    Time Temperature Precipitation Wind Pressure Humidity
    00:00 +9°C° 1.4 mm 11 mps 740 mmHg 80%
    01:00 +9°C° 1.4 mm 12 mps 739 mmHg 81%
    02:00 +8°C° 0.5 mm 12 mps 739 mmHg 76%
    03:00 +7°C° 0.5 mm 11 mps 739 mmHg 70%
    04:00 +7°C° 0.5 mm 11 mps 739 mmHg 65%
    05:00 +6°C° 0 mm 10 mps 740 mmHg 64%
    06:00 +5°C° 0 mm 10 mps 741 mmHg 63%
    07:00 +3°C° 0 mm 9 mps 742 mmHg 62%
    08:00 +5°C° 0 mm 10 mps 743 mmHg 57%
    09:00 +5°C° 0 mm 10 mps 744 mmHg 52%
    10:00 +6°C° 0 mm 11 mps 744 mmHg 47%
    11:00 +6°C° 0 mm 11 mps 745 mmHg 45%
    12:00 +7°C° 0 mm 11 mps 745 mmHg 43%
    13:00 +7°C° 0 mm 10 mps 745 mmHg 41%
    14:00 +7°C° 0 mm 10 mps 746 mmHg 42%
    15:00 +6°C° 0 mm 9 mps 746 mmHg 43%
    16:00 +6°C° 0 mm 8 mps 747 mmHg 44%
    17:00 +5°C° 0 mm 8 mps 748 mmHg 47%
    18:00 +4°C° 0 mm 7 mps 748 mmHg 49%
    19:00 +4°C° 0 mm 7 mps 749 mmHg 52%
    20:00 +4°C° 0 mm 7 mps 750 mmHg 54%
    21:00 +3°C° 0 mm 7 mps 750 mmHg 56%
    22:00 +3°C° 0 mm 6 mps 750 mmHg 58%
    23:00 +3°C° 0 mm 6 mps 751 mmHg 61%

    25 October, Thursday

    Time Temperature Precipitation Wind Pressure Humidity
    00:00 +3°C° 0 mm 6 mps 751 mmHg 64%
    01:00 +2°C° 0 mm 6 mps 751 mmHg 66%
    02:00 +2°C° 0 mm 6 mps 751 mmHg 69%
    03:00 +2°C° 0 mm 5 mps 752 mmHg 71%
    04:00 +2°C° 0 mm 5 mps 752 mmHg 74%
    05:00 +2°C° 0 mm 5 mps 752 mmHg 77%
    06:00 +1°C° 0 mm 5 mps 752 mmHg 80%
    07:00 +1°C° 0 mm 5 mps 752 mmHg 83%
    08:00 +2°C° 0 mm 5 mps 751 mmHg 82%
    09:00 +4°C° 0 mm 6 mps 751 mmHg 81%
    10:00 +5°C° 0 mm 6 mps 751 mmHg 79%
    11:00 +5°C° 0.1 mm 6 mps 750 mmHg 81%
    12:00 +6°C° 0.1 mm 7 mps 750 mmHg 84%
    13:00 +6°C° 0.1 mm 7 mps 749 mmHg 86%
    14:00 +8°C° 0.1 mm 7 mps 749 mmHg 83%
    15:00 +9°C° 0.1 mm 7 mps 748 mmHg 81%
    16:00 +9°C° 0.1 mm 7 mps 748 mmHg 78%
    17:00 +9°C° 0 mm 7 mps 748 mmHg 78%
    18:00 +8°C° 0 mm 7 mps 748 mmHg 79%
    19:00 +8°C° 0 mm 6 mps 748 mmHg 79%
    20:00 +8°C° 0 mm 6 mps 748 mmHg 80%
    21:00 +8°C° 0 mm 6 mps 748 mmHg 81%
    22:00 +7°C° 0 mm 6 mps 748 mmHg 81%
    23:00 +7°C° 0 mm 6 mps 748 mmHg 83%

    26 October, Friday

    Time Temperature Precipitation Wind Pressure Humidity
    00:00 +7°C° 0 mm 6 mps 748 mmHg 84%
    01:00 +7°C° 0 mm 5 mps 748 mmHg 85%
    02:00 +7°C° 0 mm 5 mps 748 mmHg 87%
    03:00 +6°C° 0 mm 5 mps 747 mmHg 89%
    04:00 +6°C° 0 mm 4 mps 747 mmHg 92%
    05:00 +6°C° 0 mm 4 mps 747 mmHg 92%
    06:00 +6°C° 0 mm 4 mps 747 mmHg 93%
    07:00 +6°C° 0 mm 4 mps 747 mmHg 93%
    08:00 +7°C° 0 mm 4 mps 747 mmHg 89%
    09:00 +8°C° 0 mm 4 mps 747 mmHg 84%
    10:00 +10°C° 0 mm 4 mps 747 mmHg 80%
    11:00 +9°C° 0 mm 5 mps 746 mmHg 79%
    12:00 +10°C° 0 mm 5 mps 746 mmHg 78%
    13:00 +10°C° 0 mm 5 mps 745 mmHg 77%
    14:00 +11°C° 0 mm 4 mps 745 mmHg 76%
    15:00 +11°C° 0 mm 4 mps 744 mmHg 75%
    16:00 +11°C° 0 mm 3 mps 744 mmHg 74%
    17:00 +11°C° 0 mm 3 mps 744 mmHg 76%
    18:00 +11°C° 0 mm 3 mps 744 mmHg 77%
    19:00 +10°C° 0 mm 3 mps 744 mmHg 79%
    20:00 +10°C° 0 mm 3 mps 743 mmHg 80%
    21:00 +10°C° 0 mm 4 mps 743 mmHg 81%
    22:00 +10°C° 0 mm 4 mps 743 mmHg 81%
    23:00 +8°C° 0 mm 4 mps 743 mmHg 83%

    27 October, Saturday

    Time Temperature Precipitation Wind Pressure Humidity
    00:00 +9°C° 0 mm 3 mps 743 mmHg 85%
    01:00 +9°C° 0 mm 3 mps 743 mmHg 86%
    02:00 +9°C° 0 mm 3 mps 743 mmHg 87%
    03:00 +8°C° 0 mm 3 mps 743 mmHg 89%
    04:00 +8°C° 0 mm 3 mps 743 mmHg 90%
    05:00 +8°C° 0 mm 2 mps 743 mmHg 91%
    06:00 +8°C° 0 mm 2 mps 742 mmHg 92%
    07:00 +8°C° 0 mm 2 mps 742 mmHg 93%
    08:00 +8°C° 0.1 mm 2 mps 742 mmHg 90%
    09:00 +10°C° 0.1 mm 1 mps 742 mmHg 87%
    10:00 +11°C° 0.1 mm 1 mps 741 mmHg 83%
    11:00 +11°C° 0.4 mm 1 mps 741 mmHg 84%
    12:00 +11°C° 0.4 mm 1 mps 741 mmHg 84%
    13:00 +11°C° 0.4 mm 1 mps 740 mmHg 84%
    14:00 +9°C° 0.7 mm 2 mps 740 mmHg 86%
    15:00 +9°C° 0.7 mm 3 mps 740 mmHg 88%
    16:00 +7°C° 0.7 mm 4 mps 740 mmHg 90%
    17:00 +7°C° 0.6 mm 4 mps 740 mmHg 88%
    18:00 +6°C° 0.6 mm 4 mps 740 mmHg 87%
    19:00 +6°C° 0.6 mm 4 mps 740 mmHg 85%
    20:00 +6°C° 0.9 mm 4 mps 740 mmHg 85%
    21:00 +5°C° 0.9 mm 4 mps 740 mmHg 85%
    22:00 +5°C° 0.9 mm 4 mps 740 mmHg 85%
    23:00 +5°C° 0.5 mm 4 mps 741 mmHg 85%
    Show more